TimeMST,TemperatureF,Dew PointF,Humidity,Sea Level PressureIn,VisibilityMPH,Wind Direction,Wind SpeedMPH,Gust SpeedMPH,PrecipitationIn,Events,Conditions,WindDirDegrees,DateUTC
12:15 AM,22.3,19.8,90,30.27,10.0,Calm,Calm,-,N/A,,Clear,0,2013-11-18 07:15:00
12:35 AM,20.5,18.0,90,30.26,10.0,Calm,Calm,-,N/A,,Clear,0,2013-11-18 07:35:00
12:55 AM,20.5,18.1,91,30.26,10.0,Calm,Calm,-,N/A,,Clear,0,2013-11-18 07:55:00
1:15 AM,19.9,17.6,91,30.26,10.0,Calm,Calm,-,N/A,,Clear,0,2013-11-18 08:15:00
1:35 AM,20.1,18.0,91,30.27,10.0,Calm,Calm,-,N/A,,Clear,0,2013-11-18 08:35:00
1:55 AM,18.5,16.0,90,30.26,10.0,Calm,Calm,-,N/A,,Clear,0,2013-11-18 08:55:00
2:15 AM,19.0,16.5,90,30.26,10.0,Calm,Calm,-,N/A,,Clear,0,2013-11-18 09:15:00
2:35 AM,18.0,15.8,91,30.27,10.0,Calm,Calm,-,N/A,,Clear,0,2013-11-18 09:35:00
2:55 AM,18.3,16.0,91,30.27,10.0,Calm,Calm,-,N/A,,Clear,0,2013-11-18 09:55:00
3:15 AM,20.8,18.9,92,30.27,10.0,Calm,Calm,-,N/A,,Clear,0,2013-11-18 10:15:00
3:35 AM,19.8,17.8,92,30.27,10.0,Calm,Calm,-,N/A,,Clear,0,2013-11-18 10:35:00
3:55 AM,18.1,15.8,91,30.27,10.0,Calm,Calm,-,N/A,,Clear,0,2013-11-18 10:55:00
4:15 AM,17.2,15.1,91,30.28,10.0,Calm,Calm,-,N/A,,Clear,0,2013-11-18 11:15:00
4:35 AM,17.8,15.3,90,30.28,10.0,Calm,Calm,-,N/A,,Clear,0,2013-11-18 11:35:00
4:55 AM,16.0,13.8,91,30.28,10.0,Calm,Calm,-,N/A,,Clear,0,2013-11-18 11:55:00
5:15 AM,16.9,14.7,91,30.28,10.0,Calm,Calm,-,N/A,,Clear,0,2013-11-18 12:15:00
5:35 AM,16.9,14.9,92,30.28,10.0,SSE,5.8,-,N/A,,Clear,160,2013-11-18 12:35:00
5:55 AM,18.7,16.7,92,30.27,10.0,Calm,Calm,-,N/A,,Clear,0,2013-11-18 12:55:00
6:15 AM,19.9,17.6,91,30.28,10.0,NNE,3.5,-,N/A,,Clear,30,2013-11-18 13:15:00
6:35 AM,19.2,17.1,91,30.29,10.0,NNE,3.5,-,N/A,,Clear,30,2013-11-18 13:35:00
6:55 AM,19.6,17.4,91,30.29,10.0,NNE,3.5,-,N/A,,Clear,20,2013-11-18 13:55:00
7:15 AM,19.9,18.0,92,30.31,10.0,Calm,Calm,-,N/A,,Clear,0,2013-11-18 14:15:00
7:35 AM,21.2,19.2,92,30.31,10.0,Calm,Calm,-,N/A,,Clear,0,2013-11-18 14:35:00
7:55 AM,22.1,19.6,90,30.30,10.0,Calm,Calm,-,N/A,,Clear,0,2013-11-18 14:55:00
8:15 AM,24.8,22.1,89,30.30,10.0,Calm,Calm,-,N/A,,Clear,0,2013-11-18 15:15:00
8:35 AM,27.1,23.9,88,30.31,10.0,Calm,Calm,-,N/A,,Clear,0,2013-11-18 15:35:00
8:55 AM,29.5,24.6,82,30.31,10.0,Calm,Calm,-,N/A,,Clear,0,2013-11-18 15:55:00
9:15 AM,32.4,25.7,76,30.31,10.0,Calm,Calm,-,N/A,,Clear,0,2013-11-18 16:15:00
9:35 AM,35.2,27.1,72,30.31,10.0,South,3.5,-,N/A,,Clear,170,2013-11-18 16:35:00
9:55 AM,40.3,22.8,50,30.31,10.0,Calm,Calm,-,N/A,,Clear,0,2013-11-18 16:55:00
10:15 AM,41.9,21.6,44,30.31,10.0,Calm,Calm,-,N/A,,Clear,0,2013-11-18 17:15:00
10:35 AM,43.7,22.1,42,30.31,10.0,Calm,Calm,-,N/A,,Clear,0,2013-11-18 17:35:00
10:55 AM,44.1,23.0,43,30.31,10.0,Calm,Calm,-,N/A,,Clear,0,2013-11-18 17:55:00
11:15 AM,45.3,19.6,36,30.29,10.0,WSW,3.5,-,N/A,,Clear,240,2013-11-18 18:15:00
11:35 AM,47.7,16.3,29,30.28,10.0,WSW,9.2,-,N/A,,Clear,250,2013-11-18 18:35:00
11:55 AM,49.1,16.0,27,30.27,10.0,WSW,9.2,-,N/A,,Clear,250,2013-11-18 18:55:00
12:15 PM,46.9,17.1,30,30.26,10.0,WSW,8.1,-,N/A,,Clear,240,2013-11-18 19:15:00
12:35 PM,45.3,18.0,34,30.26,10.0,SW,9.2,-,N/A,,Clear,220,2013-11-18 19:35:00
12:55 PM,44.6,18.1,35,30.26,10.0,SSW,3.5,-,N/A,,Clear,200,2013-11-18 19:55:00
1:15 PM,44.1,17.4,34,30.25,10.0,West,6.9,-,N/A,,Clear,280,2013-11-18 20:15:00
1:35 PM,43.9,17.6,35,30.24,10.0,SW,3.5,-,N/A,,Clear,230,2013-11-18 20:35:00
1:55 PM,44.1,16.0,32,30.24,10.0,Calm,Calm,-,N/A,,Clear,0,2013-11-18 20:55:00
2:15 PM,43.2,15.8,33,30.24,10.0,West,5.8,9.2,N/A,,Clear,260,2013-11-18 21:15:00
2:35 PM,42.8,16.2,34,30.24,10.0,Calm,Calm,-,N/A,,Clear,0,2013-11-18 21:35:00
2:55 PM,42.4,18.9,39,30.24,10.0,WSW,3.5,-,N/A,,Clear,240,2013-11-18 21:55:00
3:15 PM,43.0,15.6,33,30.23,10.0,ESE,3.5,-,N/A,,Clear,120,2013-11-18 22:15:00
3:35 PM,42.1,18.9,39,30.23,10.0,West,4.6,-,N/A,,Clear,270,2013-11-18 22:35:00
3:55 PM,41.0,18.0,40,30.23,10.0,WSW,5.8,-,N/A,,Clear,240,2013-11-18 22:55:00
4:15 PM,40.5,17.4,39,30.23,10.0,WSW,3.5,-,N/A,,Clear,240,2013-11-18 23:15:00
4:35 PM,39.9,18.3,42,30.23,10.0,SW,6.9,-,N/A,,Clear,230,2013-11-18 23:35:00
4:55 PM,38.5,19.2,46,30.23,10.0,SSW,5.8,-,N/A,,Clear,200,2013-11-18 23:55:00
5:15 PM,35.6,19.9,53,30.23,10.0,SW,4.6,-,N/A,,Clear,230,2013-11-19 00:15:00
5:35 PM,31.3,20.5,64,30.24,10.0,Calm,Calm,-,N/A,,Clear,0,2013-11-19 00:35:00
5:55 PM,29.7,20.3,68,30.24,10.0,Calm,Calm,-,N/A,,Clear,0,2013-11-19 00:55:00
6:15 PM,29.3,19.4,67,30.24,10.0,Calm,Calm,-,N/A,,Clear,0,2013-11-19 01:15:00
6:35 PM,29.7,19.4,66,30.24,10.0,South,5.8,-,N/A,,Clear,170,2013-11-19 01:35:00
6:55 PM,27.1,19.8,74,30.25,10.0,Calm,Calm,-,N/A,,Clear,0,2013-11-19 01:55:00
7:15 PM,26.1,19.2,75,30.24,10.0,Calm,Calm,-,N/A,,Clear,0,2013-11-19 02:15:00
7:35 PM,24.8,18.7,78,30.24,10.0,Calm,Calm,-,N/A,,Clear,0,2013-11-19 02:35:00
7:55 PM,24.1,18.3,79,30.24,10.0,Calm,Calm,-,N/A,,Clear,0,2013-11-19 02:55:00
8:15 PM,26.4,19.8,76,30.24,10.0,NNE,4.6,-,N/A,,Clear,30,2013-11-19 03:15:00
8:35 PM,25.7,20.1,79,30.24,10.0,NNE,4.6,-,N/A,,Clear,30,2013-11-19 03:35:00
8:55 PM,24.3,19.6,82,30.24,10.0,Calm,Calm,-,N/A,,Clear,0,2013-11-19 03:55:00
9:15 PM,24.8,19.8,81,30.24,10.0,Calm,Calm,-,N/A,,Clear,0,2013-11-19 04:15:00
9:35 PM,24.1,18.9,80,30.24,10.0,Calm,Calm,-,N/A,,Clear,0,2013-11-19 04:35:00
9:55 PM,21.7,17.8,85,30.24,10.0,Calm,Calm,-,N/A,,Clear,0,2013-11-19 04:55:00
10:15 PM,21.9,18.1,85,30.24,10.0,NE,3.5,-,N/A,,Clear,50,2013-11-19 05:15:00
10:35 PM,20.3,16.7,86,30.24,10.0,Calm,Calm,-,N/A,,Clear,0,2013-11-19 05:35:00
10:55 PM,21.0,17.6,87,30.24,10.0,Calm,Calm,-,N/A,,Clear,0,2013-11-19 05:55:00
11:15 PM,22.5,17.4,81,30.24,10.0,Calm,Calm,-,N/A,,Clear,0,2013-11-19 06:15:00
11:35 PM,20.3,16.3,85,30.23,10.0,Calm,Calm,-,N/A,,Clear,0,2013-11-19 06:35:00
11:55 PM,26.4,19.4,75,30.22,10.0,NNE,3.5,-,N/A,,Clear,20,2013-11-19 06:55:00